Date String (YYYY-MM-DD hh:mm:ss) UTC,Instrument flags,Ambient pressure (hPa),Sample flow (lpm),Bypass flow (lpm),Sample temperature (°C),Ambient temperature (°C),ASC tube jacket temperature (°C),LED temperature (°C),Box temperature (°C),Sample RH (%),Span deviation,Mass concentration (μg/m³),Mass concentration (μg/m³),Mass concentration (μg/m³)
DateTimeUTC,F1_M11,P_M11,Q1_M11,Q2_M11,T1_M11,T2_M11,T3_M11,T4_M11,T5_M11,U1_M11,ZSPAN_M11,X0_M11,X2_M11,X1_M11
2021-09-19 11:00:00,,0824.4,5.00,0.00,29.7,28.8,00.0,38.7,31.6,19.5,0000.0,0001.20,0000.82,0000.62
2021-09-19 11:01:00,,0824.4,5.02,0.00,29.8,28.9,00.0,38.7,31.6,19.6,0000.0,0001.26,0000.84,0000.62
2021-09-19 11:02:00,,0824.4,4.99,0.00,29.8,28.9,00.0,38.8,31.6,19.7,0000.0,0001.33,0000.82,0000.61
2021-09-19 11:03:00,,0824.4,5.00,0.00,29.8,28.9,00.0,38.8,31.6,19.6,0000.0,0001.62,0000.83,0000.60
2021-09-19 11:04:00,,0824.4,5.00,0.00,29.9,29.0,00.0,38.8,31.7,19.5,0000.0,0001.71,0000.85,0000.60
2021-09-19 11:05:00,,0824.4,4.99,0.00,29.9,29.0,00.0,38.8,31.7,19.5,0000.0,0001.80,0000.88,0000.60
2021-09-19 11:06:00,,0824.4,5.01,0.00,29.9,28.6,00.0,38.8,31.6,19.5,0000.0,0001.79,0000.88,0000.61
2021-09-19 11:07:00,,0824.4,5.00,0.00,29.8,26.7,00.0,38.8,31.1,19.5,0000.0,0001.78,0000.88,0000.62
2021-09-19 11:08:00,,0824.5,4.99,0.00,29.7,26.3,00.0,38.8,31.0,19.6,0000.0,0001.77,0000.88,0000.62
2021-09-19 11:09:00,,0824.4,5.00,0.00,29.6,26.6,00.0,38.8,31.0,19.6,0000.0,0001.72,0000.86,0000.63
2021-09-19 11:10:00,,0824.5,5.01,0.00,29.5,27.0,00.0,38.7,31.1,19.5,0000.0,0001.69,0000.85,0000.63
2021-09-19 11:11:00,,0824.5,5.00,0.00,29.5,27.3,00.0,38.7,31.1,19.6,0000.0,0001.72,0000.86,0000.63
2021-09-19 11:12:00,,0824.4,5.00,0.00,29.5,27.6,00.0,38.7,31.2,19.7,0000.0,0001.63,0000.83,0000.63
2021-09-19 11:13:00,,0824.4,5.01,0.00,29.5,27.9,00.0,38.7,31.2,19.7,0000.0,0001.59,0000.81,0000.63
2021-09-19 11:14:00,,0824.4,4.99,0.00,29.5,28.0,00.0,38.7,31.3,19.7,0000.0,0001.20,0000.81,0000.65
2021-09-19 11:15:00,,0824.5,5.01,0.00,29.6,28.2,00.0,38.7,31.3,19.9,0000.0,0001.11,0000.79,0000.65
2021-09-19 11:16:00,,0824.5,5.00,0.00,29.6,28.3,00.0,38.7,31.4,20.0,0000.0,0001.06,0000.79,0000.66
2021-09-19 11:17:00,,0824.4,5.00,0.00,29.6,28.4,00.0,38.7,31.4,20.0,0000.0,0001.08,0000.79,0000.66
2021-09-19 11:18:00,,0824.8,5.00,0.00,29.6,28.5,00.0,38.7,31.4,19.9,0000.0,0001.06,0000.78,0000.66
2021-09-19 11:19:00,,0824.6,5.00,0.00,29.7,28.6,00.0,38.7,31.4,19.8,0000.0,0001.10,0000.78,0000.66
2021-09-19 11:20:00,,0824.8,5.00,0.00,29.7,28.7,00.0,38.7,31.4,19.6,0000.0,0001.12,0000.78,0000.65
2021-09-19 11:21:00,,0824.7,5.00,0.00,29.7,28.7,00.0,38.7,31.5,19.6,0000.0,0001.19,0000.81,0000.65
2021-09-19 11:22:00,,0824.5,5.01,0.00,29.7,28.8,00.0,38.7,31.5,19.6,0000.0,0001.99,0000.82,0000.65
2021-09-19 11:23:00,,0824.5,4.99,0.00,29.8,28.8,00.0,38.8,31.6,19.6,0000.0,0002.40,0000.81,0000.64
2021-09-19 11:24:00,,0824.5,5.00,0.00,29.8,28.9,00.0,38.8,31.6,19.6,0000.0,0002.40,0000.82,0000.64
2021-09-19 11:25:00,,0824.7,5.00,0.00,29.8,28.9,00.0,38.8,31.6,19.5,0000.0,0002.33,0000.79,0000.63
2021-09-19 11:26:00,,0824.5,5.00,0.00,29.8,28.9,00.0,38.8,31.6,19.1,0000.0,0002.35,0000.80,0000.64
2021-09-19 11:27:00,,0824.4,5.00,0.00,29.8,29.0,00.0,38.8,31.6,16.9,0000.0,0002.46,0000.86,0000.68
2021-09-19 11:28:00,,0824.5,4.99,0.00,29.9,29.0,00.0,38.9,31.7,16.9,0000.0,0002.52,0000.90,0000.72
2021-09-19 11:29:00,,0824.6,5.00,0.00,29.9,29.0,00.0,38.9,31.7,16.9,0000.0,0003.17,0000.99,0000.78
2021-09-19 11:30:00,,0824.4,4.99,0.00,29.8,27.6,00.0,38.9,31.3,17.4,0000.0,0003.90,0001.04,0000.82
2021-09-19 11:31:00,,0824.5,5.00,0.00,29.7,26.3,00.0,38.8,31.0,17.7,0000.0,0004.10,0001.13,0000.85
2021-09-19 11:32:00,,0824.4,4.99,0.00,29.6,26.4,00.0,38.8,31.0,18.0,0000.0,0004.28,0001.15,0000.89
2021-09-19 11:33:00,,0824.4,5.01,0.00,29.5,26.8,00.0,38.8,31.1,17.8,0000.0,0003.64,0001.17,0000.93
2021-09-19 11:34:00,,0824.5,4.99,0.00,29.5,27.2,00.0,38.7,31.1,17.9,0000.0,0003.34,0001.24,0000.97
2021-09-19 11:35:00,,0824.4,5.01,0.00,29.5,27.5,00.0,38.7,31.2,18.1,0000.0,0003.42,0001.29,0001.01
2021-09-19 11:36:00,,0824.6,5.01,0.00,29.5,27.8,00.0,38.7,31.2,18.6,0000.0,0003.48,0001.33,0001.04
2021-09-19 11:37:00,,0824.4,5.01,0.00,29.5,28.0,00.0,38.7,31.2,18.5,0000.0,0003.49,0001.34,0001.05
2021-09-19 11:38:00,,0824.5,4.98,0.00,29.5,28.1,00.0,38.7,31.3,18.7,0000.0,0003.33,0001.26,0001.01
2021-09-19 11:39:00,,0824.4,5.02,0.00,29.5,28.3,00.0,38.7,31.3,19.0,0000.0,0003.24,0001.22,0000.97
2021-09-19 11:40:00,,0824.4,4.99,0.00,29.6,28.4,00.0,38.7,31.3,19.2,0000.0,0002.56,0001.14,0000.93
2021-09-19 11:41:00,,0824.5,5.01,0.00,29.6,28.4,00.0,38.7,31.3,19.1,0000.0,0001.86,0001.12,0000.89
2021-09-19 11:42:00,,0824.4,5.00,0.00,29.6,28.5,00.0,38.7,31.4,19.0,0000.0,0002.13,0001.04,0000.86
2021-09-19 11:43:00,,0824.4,4.99,0.00,29.6,28.6,00.0,38.7,31.4,19.1,0000.0,0002.44,0000.99,0000.84
2021-09-19 11:44:00,,0824.4,5.01,0.00,29.6,28.6,00.0,38.7,31.4,19.1,0000.0,0002.23,0000.95,0000.80
2021-09-19 11:45:00,,0824.4,4.99,0.00,29.6,28.7,00.0,38.7,31.4,19.2,0000.0,0002.14,0000.89,0000.76
2021-09-19 11:46:00,,0824.4,5.02,0.00,29.6,28.7,00.0,38.7,31.4,19.1,0000.0,0002.10,0000.84,0000.71
2021-09-19 11:47:00,,0824.4,4.99,0.00,29.7,28.8,00.0,38.7,31.4,19.0,0000.0,0002.08,0000.81,0000.69
2021-09-19 11:48:00,,0824.4,5.00,0.00,29.7,28.8,00.0,38.7,31.4,19.2,0000.0,0002.06,0000.79,0000.67
2021-09-19 11:49:00,,0824.4,5.00,0.00,29.7,28.8,00.0,38.8,31.5,19.2,0000.0,0002.14,0000.84,0000.66
2021-09-19 11:50:00,,0824.4,5.00,0.00,29.7,28.8,00.0,38.8,31.5,18.8,0000.0,0002.20,0000.86,0000.66
2021-09-19 11:51:00,,0824.4,5.00,0.00,29.7,28.9,00.0,38.8,31.5,18.9,0000.0,0002.26,0000.88,0000.66
2021-09-19 11:52:00,,0824.5,5.00,0.00,29.7,28.9,00.0,38.8,31.5,18.8,0000.0,0002.19,0000.86,0000.66
2021-09-19 11:53:00,,0824.4,5.00,0.00,29.7,28.9,00.0,38.8,31.5,18.8,0000.0,0001.87,0000.88,0000.67
2021-09-19 11:54:00,,0824.4,5.00,0.00,29.7,28.9,00.0,38.8,31.5,18.7,0000.0,0001.26,0000.89,0000.67
2021-09-19 11:55:00,,0824.3,4.99,0.00,29.7,28.9,00.0,38.8,31.5,18.4,0000.0,0001.35,0000.93,0000.69
2021-09-19 11:56:00,,0824.4,5.01,0.00,29.7,27.7,00.0,38.8,31.2,18.5,0000.0,0001.41,0000.96,0000.71
2021-09-19 11:57:00,,0824.5,5.00,0.00,29.5,26.2,00.0,38.8,30.8,18.5,0000.0,0001.43,0001.00,0000.73
2021-09-19 11:58:00,,0824.4,5.00,0.00,29.4,26.2,00.0,38.7,30.8,18.6,0000.0,0001.44,0001.03,0000.76
2021-09-19 11:59:00,,0824.4,5.01,0.00,29.4,26.6,00.0,38.7,30.8,18.7,0000.0,0001.48,0001.06,0000.78
